Pasco, WA

1:26 AM PST on February 11, 2016 (GMT -0800)
Tri-Cities

Weather History for KPSC - June, 2014

Change the Weather History Date:

Tuesday, June 10, 2014

  Actual Average Record
Temperature  
Mean Temperature 67 °F 67 °F  
Max Temperature 84 °F 81 °F 96 °F (2015)
Min Temperature 50 °F 52 °F 45 °F (1999)
Degree Days  
Heating Degree Days 0 1  
Month to date heating degree days 0 18  
Since 1 June heating degree days 0 18  
Since 1 July heating degree days 5207 5008  
Cooling Degree Days 2 3  
Month to date cooling degree days 43 25  
Year to date cooling degree days 77 58  
Since 1 June cooling degree days 43 25  
Growing Degree Days 17 (Base 50)    
Moisture  
Dew Point 41 °F    
Average Humidity 45    
Maximum Humidity 71    
Minimum Humidity 18    
Precipitation  
Precipitation 0.00 in 0.03 in 0.31 in (2004)
Month to date precipitation 0.00 0.30  
Year to date precipitation 2.38 4.55  
Snow  
Snow 0.00 in - - ()
Snow Depth 0.00 in    
Sea Level Pressure  
Sea Level Pressure 29.92 in    
Wind  
Wind Speed 8 mph (West)    
Max Wind Speed 23 mph    
Max Gust Speed 29 mph    
Visibility 10 miles    
Events      
T = Trace of Precipitation, MM = Missing Value Source: NWS Daily Summary

Daily Weather History Graph

Daily Weather History Graph

Search for Another Location

Airport or City:

Trip Planner

Search our weather history database for the weather conditions in past years. The results will help you decide how hot, cold, wet, or windy it might be!

Date:

Astronomy

Jun. 10, 2014 Rise Set
Actual Time 5:04 AM PDT 8:47 PM PDT
Civil Twilight 4:26 AM PDT 9:26 PM PDT
Nautical Twilight 3:34 AM PDT 10:18 PM PDT
Astronomical Twilight 2:22 AM PDT 11:30 PM PDT
Moon 6:10 PM PDT (6/10) 3:23 AM PDT (6/10)
Length of Visible Light 17h 00m
Length of Day
15h 43m
Waxing Gibbous, 93% of the Moon is Illuminated
Jun 10
Waxing Gibbous
Jun 12
Full
Jun 19
Last Quarter
Jun 27
New
Jul 5
First Quarter

Hourly Weather History & Observations

Time (PDT) Temp. Dew Point Humidity Pressure Visibility Wind Dir Wind Speed Gust Speed Precip Events Conditions
12:53 AM 62.1 °F 43.0 °F 50% 29.90 in 10.0 mi NW 10.4 mph - N/A   Clear
1:53 AM 59.0 °F 43.0 °F 55% 29.92 in 10.0 mi West 6.9 mph - N/A   Clear
2:53 AM 60.1 °F 37.9 °F 44% 29.93 in 10.0 mi SSW 4.6 mph - N/A   Clear
3:53 AM 54.0 °F 42.1 °F 64% 29.94 in 10.0 mi ENE 3.5 mph - N/A   Clear
4:53 AM 54.0 °F 41.0 °F 62% 29.94 in 10.0 mi Calm Calm - N/A   Clear
5:53 AM 52.0 °F 43.0 °F 71% 29.94 in 10.0 mi Calm Calm - N/A   Clear
6:53 AM 61.0 °F 42.1 °F 50% 29.95 in 10.0 mi South 3.5 mph - N/A   Clear
8:53 AM 69.1 °F 39.9 °F 35% 29.95 in 10.0 mi WSW 6.9 mph - N/A   Clear
10:53 AM 73.0 °F 39.0 °F 29% 29.94 in 10.0 mi Variable 6.9 mph - N/A   Clear
12:53 PM 78.1 °F 39.9 °F 25% 29.92 in 10.0 mi North - - N/A   Clear
2:53 PM 80.1 °F 39.0 °F 23% 29.88 in 10.0 mi South 4.6 mph - N/A   Clear
3:53 PM 82.0 °F 37.9 °F 21% 29.87 in 10.0 mi SW 3.5 mph - N/A   Mostly Cloudy
4:53 PM 82.0 °F 36.0 °F 19% 29.86 in 10.0 mi WNW 9.2 mph - N/A   Mostly Cloudy
5:53 PM 80.1 °F 42.1 °F 26% 29.87 in 10.0 mi NW 19.6 mph 27.6 mph N/A   Mostly Cloudy
6:53 PM 77.0 °F 39.9 °F 26% 29.88 in 10.0 mi NW 19.6 mph - N/A   Clear
8:53 PM 66.9 °F 42.1 °F 40% 29.92 in 10.0 mi NW 16.1 mph - N/A   Scattered Clouds
9:53 PM 64.0 °F 42.1 °F 45% 29.94 in 10.0 mi NW 16.1 mph 25.3 mph N/A   Clear
10:53 PM 63.0 °F 42.1 °F 46% 29.96 in 10.0 mi WNW 13.8 mph - N/A   Clear
11:53 PM 61.0 °F 42.1 °F 50% 29.96 in 10.0 mi NW 13.8 mph - N/A   Clear